Home > Weather > Weimar > Past weeks

Flag for Germany Past Weather in Weimar, Thuringia, Germany — Yesterday and Last 2 Weeks

Now
63 °F

Passing clouds.


Feels Like: 63 °F
Forecast: 53 / 69 °F
Wind: 7 mph from South

Location: Erfurt-Bindersleben

Current Time: Jul 2, 2016 at 12:43:41 AM

Latest Report: Jul 2, 2016 at 12:20 AM


Visibility: N/A

Pressure: 29.98 "Hg

Humidity: 77%

Dew Point: 55 °F

Location of WeimarLocation

Past Weather in Weimar — Graph

°F

Weimar Temperature Yesterday

Maximum temperature yesterday: 77 °F (at 4:50 PM)
Minimum temperature yesterday: 57 °F (at 3:50 AM)
Average temperature yesterday: 68 °F

High & Low Weather Summary for the Past Weeks

 TemperatureHumidityPressure
High91 °F (Jun 24, 3:50 PM)100% (Jun 17, 6:50 AM)30.24 "Hg (Jun 17, 6:50 AM)
Low46 °F (Jun 20, 5:20 AM)31% (Jun 23, 4:20 PM)29.56 "Hg (Jun 17, 3:20 AM)
Average65 °F72%30.04 "Hg
* Reported Jun 16 11:20 PM — Jul 1 11:20 PM, Weimar, Weather by CustomWeather, © 2016

Note: Actual official high and low records may vary slightly from our data, if they occured in-between our weather recording intervals... More about our weather records

Advertising

Weimar Weather History for the Previous 24 Hours

Scroll right to see more
 ConditionsComfort  
Time TempWeatherWind HumidityBarometerVisibility
11:20 PM
Fri, Jul 1
66 °FPassing clouds.6 mph68%29.98 "HgN/A
10:50 PM66 °FPassing clouds.6 mph68%29.98 "HgN/A
10:20 PM66 °FSunny.9 mph68%29.98 "Hg10 mi
9:50 PM66 °FSunny.8 mph73%29.98 "Hg10 mi
9:20 PM68 °FSunny.8 mph69%29.98 "Hg10 mi
8:50 PM70 °FSunny.9 mph60%29.98 "Hg10 mi
8:20 PM72 °FSunny.10 mph57%29.98 "Hg10 mi
7:50 PM73 °FSunny.10 mph57%29.98 "Hg10 mi
7:20 PM75 °FSunny.15 mph54%29.95 "Hg10 mi
6:50 PM75 °FPassing clouds.16 mph50%29.95 "HgN/A
6:20 PM75 °FSunny.16 mph54%29.95 "Hg10 mi
5:50 PM77 °FPassing clouds.15 mph51%29.95 "HgN/A
5:20 PM77 °FPassing clouds.18 mph47%29.98 "HgN/A
4:50 PM77 °FScattered clouds.15 mph47%29.98 "HgN/A
4:20 PM75 °FScattered clouds.15 mph50%29.98 "HgN/A
3:50 PM73 °FScattered clouds.17 mph53%29.98 "HgN/A
3:20 PM75 °FScattered clouds.18 mph50%29.98 "HgN/A
2:50 PM75 °FScattered clouds.14 mph50%29.98 "HgN/A
2:20 PM73 °FScattered clouds.14 mph53%29.98 "HgN/A
1:50 PM75 °FScattered clouds.13 mph54%30.01 "HgN/A
1:20 PM73 °FScattered clouds.13 mph57%30.01 "HgN/A
12:50 PM73 °FPassing clouds.16 mph53%30.01 "HgN/A
11:50 AM75 °FScattered clouds.16 mph54%30.01 "HgN/A
11:20 AM73 °FScattered clouds.16 mph57%30.01 "HgN/A
10:50 AM73 °FScattered clouds.15 mph57%30.01 "HgN/A
10:20 AM72 °FScattered clouds.15 mph61%30.01 "HgN/A
9:50 AM70 °FPartly sunny.15 mph64%30.01 "HgN/A
9:20 AM70 °FPartly sunny.17 mph64%30.01 "HgN/A
8:50 AM68 °FPartly sunny.14 mph69%30.01 "HgN/A
8:20 AM68 °FPartly sunny.14 mph69%30.01 "HgN/A
7:50 AM66 °FSunny.13 mph73%30.01 "Hg10 mi
7:20 AM64 °FSunny.10 mph78%30.01 "Hg10 mi
6:50 AM63 °FSunny.10 mph77%30.01 "Hg10 mi
6:20 AM61 °FSunny.8 mph83%30.01 "Hg10 mi
5:50 AM59 °FClear.6 mph82%30.01 "Hg10 mi
5:20 AM57 °FClear.8 mph88%29.98 "Hg10 mi
4:50 AM57 °FClear.6 mph88%30.01 "Hg10 mi
4:20 AM57 °FClear.7 mph88%30.01 "Hg10 mi
3:50 AM57 °FClear.9 mph88%29.98 "Hg10 mi
3:20 AM59 °FClear.9 mph82%29.98 "Hg10 mi
2:50 AM61 °FClear.8 mph77%29.98 "Hg10 mi
2:20 AM61 °FClear.10 mph83%29.98 "Hg10 mi
1:50 AM61 °FClear.8 mph77%29.98 "Hg10 mi
1:20 AM61 °FClear.8 mph83%30.01 "Hg10 mi
12:50 AM63 °FClear.8 mph77%30.01 "Hg10 mi
12:20 AM63 °FPassing clouds.6 mph77%30.01 "HgN/A
Weather by CustomWeather, © 2016

See weather overviewHow to use our weather pages